Regional Weather Roundup
Issued by NWS Newport/Morehead, NC

Current Version | Previous Version | Graphics & Text | Print | Product List | Glossary Off
Versions: 1 2 3 4 5 6 7 8 9 10 11 12 13 14 15 16 17 18 19 20 21 22 23 24 25 26 27 28 29 30 31 32 33 34 35 36 37 38 39 40 41 42 43 44 45 46 47 48 49 50

956
ASUS42 KMHX 162313
RWRMHX
WEATHER ROUNDUP FOR EASTERN NORTH CAROLINA
NATIONAL WEATHER SERVICE NEWPORT/MOREHEAD CITY NC
600 PM EST SAT DEC 16 2017

NOTE: "FAIR" INDICATES FEW OR NO CLOUDS BELOW 12,000 FEET
WITH NO SIGNIFICANT WEATHER AND/OR OBSTRUCTIONS TO VISIBILITY

NCZ015>017-031-032-045>047-102-103-170000-
NORTH COAST

CITY           SKY/WX    TMP DP  RH WIND       PRES   REMARKS
EDENTON        NOT AVBL
ELIZABETH CITY CLEAR     37  28  70 S6        30.23R
KITTY HAWK     CLEAR     37  26  63 CALM      30.21R
MANTEO         CLEAR     35  29  79 CALM      30.24R

$$

NCZ045>047-081-094-103-104-170000-
CENTRAL COAST

CITY           SKY/WX    TMP DP  RH WIND       PRES   REMARKS
FRISCO         CLEAR     39  30  70 W5        30.24R

$$

NCZ095-097-098-100-101-170000-
SOUTHERN COAST

CITY           SKY/WX    TMP DP  RH WIND       PRES   REMARKS
BEAUFORT       CLOUDY    45  33  63 W6        30.26R
CEDAR ISLAND   NOT AVBL
JACKSONVILLE   CLOUDY    43  30  60 SW3       30.25R
PINEY ISLAND     N/A    N/A N/A N/A S8        30.25R
WILMINGTON     PTCLDY    42  31  64 CALM      30.27R


$$

NCZ011>013-027>030-043-044-078>080-089-090>093-098-170000-
COASTAL PLAIN

CITY           SKY/WX    TMP DP  RH WIND       PRES   REMARKS
AHOSKIE        CLEAR     36  25  65 CALM      30.22R
CLINTON        CLOUDY    42  31  65 CALM      30.26R
ELIZABETHTOWN  NOT AVBL
GOLDSBORO      CLOUDY    42  26  52 CALM      30.23R
GREENVILLE     CLEAR     43  27  52 CALM      30.24R
HAVELOCK       CLOUDY    41  31  67 S5        30.26R
KENANSVILLE    CLOUDY    36  28  75 CALM      30.25R
KINSTON        CLEAR     36  28  75 CALM      30.25R
NEW BERN       CLOUDY    38  32  79 SW3       30.26R
RICHLANDS      CLOUDY    39  31  72 CALM      30.25S
ROCKY MOUNT    CLEAR     35  29  78 S5        30.23R
WASHINGTON     CLEAR     41  26  56 CALM      30.24R
WHITEVILLE     CLOUDY    43  31  62 CALM      30.26R

$$

AMZ130-135-150-152-154-156-158-170-250-252-270-ANZ085-086-088-633-658-670-170000-
MARINE OBSERVATIONS

STATION/POSITION TIME  TEMP    WIND        PRES    WAVE   SWELL
                       AIR SEA DIR/SP/G            HT/PER HT/PER
                 (UTC) (F)     (DEG/KT/KT) (MB)    (FT/S) (FT/S)
CHESAPEAKE LIGHT NOT AVBL
64 E VA BEACH    2250   47 59  240/ 16/ 21 1022.9    2/ 6   2/ 7
DUCK             2248   43 53  200/  5/  7 1023.0
2 E DUCK         2300      54                N/A     2/ 6
OREGON INLET     2242   43 48  210/ 12/ 13 1023.5
13E OREGON INLT  2248      58                N/A     3/ 7   3/ 7
HATTERAS CG      2248   42 52  240/  4/  6 1023.8
DIAMOND BUOY     2300   49 73  280/ 12/ 16 1023.9
CAPE LOOKOUT     2300          270/  7/  9 1024.7
BEAUFORT LAB     2248   46 50  250/  3/  6 1024.4
30 SE NEW RVR IN 2208   49 64  300/  8/ 12 1024.5
30 SE NEW RVR IN 2300      64                N/A     2/ 6
27 SE WRIGHTSVLE 2208   48 63  260/  8/ 12 1024.4
5 SE WRIGHTSVLE  2208   48 56  220/  8/ 12 1023.8
225 S CAPE HAT   2250   62 74  360/  6/ 10 1023.4    6/ 7   5/ 7
41 SE CHARLESTON 2300   56 73   70/  2/  8 1024.2

$$




USA.gov is the U.S. government's official web portal to all federal, state and local government web resources and services.